KE7OZA Weather Reports


Display with metric or nautical units.
time (UTC)temp
F
wind
direction
speed
MPH
gust
MPH
rain 1hr
in
rain 24hr
in
rain mn
in
humidity
%
barometer
mb
20260507145558 49 251 3.0 9.0 0.00 0.00 0.00 65 1017.3
20260507145102 49 250 3.0 9.0 0.00 0.00 0.00 66 1017.3
20260507144558 48 228 2.0 9.0 0.00 0.00 0.00 66 1017.2
20260507144058 48 237 3.0 6.0 0.00 0.00 0.00 67 1017.2
20260507143600 47 245 3.0 6.0 0.00 0.00 0.00 67 1017.3
20260507143102 47 318 2.0 6.0 0.00 0.00 0.00 69 1017.2
20260507142558 47 243 2.0 5.0 0.00 0.00 0.00 68 1017.1
20260507142058 47 244 2.0 9.0 0.00 0.00 0.00 69 1017.1
20260507141555 46 241 2.0 9.0 0.00 0.00 0.00 69 1017.1
20260507141058 46 245 1.0 6.0 0.00 0.00 0.00 69 1016.9
20260507140558 46 242 2.0 6.0 0.00 0.00 0.00 69 1016.8
20260507140101 46 238 2.0 5.0 0.00 0.00 0.00 69 1016.9
20260507135559 46 260 2.0 6.0 0.00 0.00 0.00 69 1017.0
20260507135102 46 259 2.0 7.0 0.00 0.00 0.00 68 1017.0
20260507134559 45 256 2.0 7.0 0.00 0.00 0.00 69 1016.9
20260507134057 45 273 1.0 6.0 0.00 0.00 0.00 70 1017.0
20260507133558 45 214 2.0 6.0 0.00 0.00 0.00 69 1016.8
20260507133058 45 246 2.0 9.0 0.00 0.00 0.00 69 1016.7
20260507132559 45 236 2.0 9.0 0.00 0.00 0.00 70 1016.6
20260507132058 45 246 2.0 12.0 0.00 0.00 0.00 70 1016.7
20260507131556 45 235 2.0 12.0 0.00 0.00 0.00 71 1016.7
20260507131058 44 194 1.0 9.0 0.00 0.00 0.00 72 1016.8
20260507130559 44 192 3.0 9.0 0.00 0.00 0.00 71 1016.7
20260507130107 44 145 2.0 12.0 0.00 0.00 0.00 73 1016.7
20260507125558 44 224 3.0 12.0 0.00 0.00 0.00 73 1016.8
20260507125057 44 266 2.0 10.0 0.00 0.00 0.00 73 1016.8
20260507124620 44 247 2.0 12.0 0.00 0.00 0.00 73 1016.7
20260507124059 44 0 2.0 12.0 0.00 0.00 0.00 74 1016.9
20260507123559 44 216 3.0 12.0 0.00 0.00 0.00 74 1017.0
20260507123108 44 257 2.0 11.0 0.00 0.00 0.00 74 1017.1
20260507122559 44 201 3.0 18.0 0.00 0.00 0.00 75 1017.1
20260507122058 45 10 3.0 18.0 0.00 0.00 0.00 75 1017.1
20260507121602 45 162 5.0 18.0 0.00 0.00 0.00 74 1017.2
20260507121059 45 226 3.0 14.0 0.00 0.00 0.00 75 1017.1
20260507120558 45 140 1.0 18.0 0.00 0.00 0.00 75 1017.1
20260507120057 45 72 3.0 18.0 0.00 0.00 0.00 74 1017.2
20260507115558 45 222 4.0 13.0 0.00 0.00 0.00 74 1017.3
20260507115058 45 107 3.0 18.0 0.00 0.00 0.00 75 1017.3
20260507114602 45 101 4.0 18.0 0.00 0.00 0.00 76 1017.3
20260507114058 45 162 5.0 18.0 0.00 0.00 0.00 75 1017.4
20260507113601 46 277 3.0 13.0 0.00 0.00 0.00 76 1017.3
20260507113057 46 241 3.0 13.0 0.00 0.00 0.00 76 1017.3
20260507112600 46 320 4.0 13.0 0.00 0.00 0.00 76 1017.4
20260507112102 46 205 3.0 13.0 0.00 0.00 0.00 76 1017.4
20260507111558 46 222 1.0 15.0 0.00 0.00 0.00 76 1017.6
20260507111059 46 173 6.0 15.0 0.00 0.00 0.00 76 1017.4
20260507110559 46 192 4.0 15.0 0.00 0.00 0.00 76 1017.3
20260507110056 46 41 3.0 18.0 0.00 0.00 0.00 76 1017.3
20260507105559 46 147 4.0 18.0 0.00 0.00 0.00 76 1017.4
20260507105058 46 251 5.0 17.0 0.00 0.00 0.00 76 1017.3
20260507104558 46 152 4.0 14.0 0.00 0.00 0.00 76 1017.2
20260507104058 46 272 4.0 14.0 0.00 0.00 0.00 76 1017.4
20260507103558 46 179 2.0 13.0 0.00 0.00 0.00 76 1017.5
20260507103109 46 179 4.0 13.0 0.00 0.00 0.00 76 1017.3
20260507102559 46 127 2.0 16.0 0.00 0.00 0.00 75 1017.2
20260507102059 47 116 5.0 16.0 0.00 0.00 0.00 75 1017.1
20260507101601 47 157 4.0 16.0 0.00 0.00 0.00 76 1017.0
20260507101058 47 31 4.0 18.0 0.00 0.00 0.00 76 1017.2
20260507100558 47 279 6.0 18.0 0.00 0.00 0.00 75 1017.2
20260507100111 47 246 3.0 16.0 0.00 0.00 0.00 76 1017.3
20260507095601 47 234 8.0 16.0 0.00 0.00 0.00 75 1017.1
20260507095058 47 216 4.0 11.0 0.00 0.00 0.00 75 1017.3
20260507094559 47 231 4.0 17.0 0.00 0.00 0.00 74 1017.2
20260507094059 47 255 5.0 17.0 0.00 0.00 0.00 73 1017.2
20260507093558 47 214 6.0 16.0 0.00 0.00 0.00 73 1017.2
20260507093100 47 201 5.0 18.0 0.00 0.00 0.00 74 1017.2
20260507092558 47 191 5.0 18.0 0.00 0.00 0.00 74 1017.4
20260507092100 47 187 3.0 14.0 0.00 0.00 0.00 75 1017.2
20260507091558 47 276 4.0 14.0 0.00 0.00 0.00 76 1017.0
20260507091058 47 331 2.0 12.0 0.00 0.00 0.00 77 1017.2
20260507090559 47 234 3.0 13.0 0.00 0.00 0.00 77 1017.1
20260507090056 47 0 2.0 13.0 0.00 0.00 0.00 78 1017.1
20260507085558 47 264 3.0 10.0 0.00 0.00 0.00 78 1017.1
20260507085058 47 153 3.0 14.0 0.00 0.00 0.00 78 1017.0
20260507084600 47 175 2.0 14.0 0.00 0.00 0.00 79 1017.0
20260507084058 47 74 4.0 14.0 0.00 0.00 0.00 78 1016.8
20260507083559 47 216 4.0 16.0 0.00 0.00 0.00 79 1016.6
20260507083110 47 139 4.0 16.0 0.00 0.00 0.00 79 1016.6
20260507082559 47 141 3.0 11.0 0.00 0.00 0.00 78 1016.5
20260507082058 47 176 4.0 20.0 0.00 0.00 0.00 78 1016.5
20260507081601 48 340 2.0 20.0 0.00 0.00 0.00 77 1016.5
20260507081059 48 268 5.0 20.0 0.00 0.00 0.00 77 1016.5
20260507080557 48 208 3.0 13.0 0.00 0.00 0.00 77 1016.6
20260507080057 48 268 2.0 13.0 0.00 0.00 0.00 76 1016.7
20260507075558 48 210 2.0 14.0 0.00 0.00 0.00 76 1016.7
20260507075058 48 243 3.0 14.0 0.00 0.00 0.00 75 1017.0
20260507074611 48 227 4.0 14.0 0.00 0.00 0.00 75 1017.0
20260507074057 48 239 2.0 14.0 0.00 0.00 0.00 75 1017.1
20260507073600 48 265 4.0 14.0 0.00 0.00 0.00 74 1017.0
20260507073102 48 207 3.0 15.0 0.00 0.00 0.00 74 1017.0
20260507072559 48 186 3.0 15.0 0.00 0.00 0.00 74 1017.1
20260507072058 48 10 2.0 12.0 0.00 0.00 0.00 74 1017.1
20260507071557 48 232 3.0 12.0 0.00 0.00 0.00 74 1017.1
20260507071058 48 156 3.0 10.0 0.00 0.00 0.00 74 1017.1
20260507070558 48 288 2.0 17.0 0.00 0.00 0.00 74 1017.3
20260507065559 48 149 1.0 13.0 0.00 0.00 0.00 75 1017.3
20260507065058 48 76 2.0 13.0 0.00 0.00 0.00 75 1017.3
20260507064602 48 186 2.0 10.0 0.00 0.00 0.00 76 1017.3
20260507064058 48 254 3.0 15.0 0.00 0.00 0.00 76 1017.4
20260507063557 48 200 2.0 15.0 0.00 0.00 0.00 77 1017.3
20260507063100 48 92 3.0 11.0 0.00 0.00 0.00 77 1017.4
20260507062559 48 243 2.0 10.0 0.00 0.00 0.00 77 1017.4
20260507062059 48 123 2.0 13.0 0.00 0.00 0.00 77 1017.3
20260507061559 48 201 2.0 13.0 0.00 0.00 0.00 77 1017.4
20260507061058 48 166 2.0 17.0 0.00 0.00 0.00 77 1017.5
20260507060558 48 329 3.0 17.0 0.00 0.00 0.00 77 1017.6
20260507060110 48 139 2.0 17.0 0.00 0.00 0.00 78 1017.6
20260507055558 48 328 2.0 17.0 0.00 0.00 0.00 78 1017.7
20260507055059 48 115 3.0 17.0 0.00 0.00 0.00 78 1017.8
20260507054558 48 356 1.0 11.0 0.00 0.00 0.00 79 1017.8
20260507054058 48 95 2.0 11.0 0.00 0.00 0.00 79 1017.8
20260507053558 48 252 2.0 13.0 0.00 0.00 0.00 79 1017.8
20260507053059 48 220 1.0 13.0 0.00 0.00 0.00 79 1017.8
20260507052600 48 178 5.0 13.0 0.00 0.00 0.00 78 1017.8
20260507052059 48 174 1.0 12.0 0.00 0.00 0.00 78 1017.9
20260507051601 48 92 2.0 12.0 0.00 0.00 0.00 79 1018.0
20260507051059 49 149 1.0 6.0 0.00 0.00 0.00 78 1018.0
20260507050603 49 313 1.0 8.0 0.00 0.00 0.00 78 1018.0
20260507050100 49 288 1.0 8.0 0.00 0.00 0.00 77 1018.1
20260507045601 49 175 3.0 10.0 0.00 0.00 0.00 77 1018.1
20260507045059 49 0 1.0 11.0 0.00 0.00 0.00 77 1018.0
20260507044558 49 237 2.0 11.0 0.00 0.00 0.00 77 1018.1
20260507044102 49 237 1.0 11.0 0.00 0.00 0.00 77 1018.1
20260507043558 49 232 1.0 12.0 0.00 0.00 0.00 77 1018.1
20260507043058 49 273 2.0 12.0 0.00 0.00 0.00 76 1018.2
20260507042559 49 206 2.0 12.0 0.00 0.00 0.00 77 1018.0
20260507042059 49 293 3.0 10.0 0.00 0.00 0.00 76 1018.1
20260507041557 49 341 2.0 10.0 0.00 0.00 0.00 77 1018.0
20260507041058 50 177 2.0 8.0 0.00 0.00 0.00 76 1018.1
20260507040602 50 181 2.0 11.0 0.00 0.00 0.00 76 1018.1
20260507040059 50 220 2.0 11.0 0.00 0.00 0.00 76 1018.2
20260507035559 50 201 3.0 15.0 0.00 0.00 0.00 76 1018.1
20260507035059 50 234 3.0 15.0 0.00 0.00 0.00 75 1018.1
20260507034558 50 288 1.0 9.0 0.00 0.00 0.00 75 1018.0
20260507034058 50 245 2.0 11.0 0.00 0.00 0.00 75 1017.9
20260507033558 50 0 1.0 11.0 0.00 0.00 0.00 74 1017.9
20260507033058 51 127 4.0 11.0 0.00 0.00 0.00 74 1017.8
20260507032601 51 224 1.0 11.0 0.00 0.00 0.00 74 1017.8
20260507032100 51 126 2.0 11.0 0.00 0.00 0.00 73 1017.6
20260507031557 51 278 2.0 11.0 0.00 0.00 0.00 73 1017.6
20260507031103 51 170 2.0 7.0 0.00 0.00 0.00 72 1017.7
20260507030559 51 99 2.0 9.0 0.00 0.00 0.00 72 1017.6
20260507030059 52 192 2.0 9.0 0.00 0.00 0.00 72 1017.6
20260507025602 52 237 2.0 9.0 0.00 0.00 0.00 72 1017.6
20260507025058 52 339 1.0 11.0 0.00 0.00 0.00 71 1017.6
20260507024618 52 145 2.0 11.0 0.00 0.00 0.00 70 1017.5
20260507024059 53 224 3.0 11.0 0.00 0.00 0.00 70 1017.5
20260507023602 53 191 2.0 11.0 0.00 0.00 0.00 69 1017.3
20260507023057 53 75 2.0 11.0 0.00 0.00 0.00 69 1017.2
20260507022558 53 189 2.0 7.0 0.00 0.00 0.00 69 1017.1
20260507022058 53 186 2.0 8.0 0.00 0.00 0.00 69 1017.1
20260507021557 53 179 1.0 11.0 0.00 0.00 0.00 69 1017.1
20260507021059 53 214 3.0 11.0 0.00 0.00 0.00 69 1017.1
20260507020559 53 245 2.0 9.0 0.00 0.00 0.00 69 1017.2
20260507020109 53 218 3.0 9.0 0.00 0.00 0.00 69 1017.3
20260507015558 53 208 3.0 9.0 0.00 0.00 0.00 69 1017.2
20260507015055 54 195 3.0 9.0 0.00 0.00 0.00 68 1017.1
20260507014606 54 0 2.0 12.0 0.00 0.00 0.00 67 1017.1
20260507014058 54 241 2.0 12.0 0.00 0.00 0.00 66 1017.2
20260507013557 55 209 3.0 12.0 0.00 0.00 0.00 66 1017.2
20260507013058 55 199 3.0 10.0 0.00 0.00 0.00 65 1017.3
20260507012559 56 207 2.0 8.0 0.00 0.00 0.00 64 1017.1
20260507012058 56 255 2.0 18.0 0.00 0.00 0.00 64 1017.0
20260507011557 56 249 4.0 18.0 0.00 0.00 0.00 63 1017.0
20260507011058 57 203 3.0 8.0 0.00 0.00 0.00 62 1016.7
20260507010558 57 244 4.0 13.0 0.00 0.00 0.00 62 1016.9
20260507010056 57 233 4.0 15.0 0.00 0.00 0.00 61 1016.7
20260507005558 58 248 4.0 20.0 0.00 0.00 0.00 61 1016.6
20260507005058 58 242 5.0 20.0 0.00 0.00 0.00 60 1016.5
20260507004557 58 244 4.0 16.0 0.00 0.00 0.00 59 1016.6
20260507004058 59 251 3.0 16.0 0.00 0.00 0.00 59 1016.5
20260507003558 59 234 5.0 23.0 0.00 0.00 0.00 58 1016.6
20260507003058 60 203 4.0 23.0 0.00 0.00 0.00 56 1016.5
20260507002559 61 228 5.0 12.0 0.00 0.00 0.00 55 1016.4
20260507002102 62 254 4.0 15.0 0.00 0.00 0.00 54 1016.3
20260507001601 63 293 3.0 15.0 0.00 0.00 0.00 53 1016.3
20260507001058 63 242 4.0 11.0 0.00 0.00 0.00 51 1016.2
20260507000558 63 245 4.0 11.0 0.00 0.00 0.00 51 1016.2
20260507000056 64 264 5.0 11.0 0.00 0.00 0.00 50 1016.2
20260506235559 64 212 4.0 10.0 0.00 0.00 0.00 50 1016.2
20260506235058 64 180 5.0 20.0 0.00 0.00 0.00 50 1016.2
20260506234602 64 277 4.0 20.0 0.00 0.00 0.00 49 1016.0
20260506234058 64 280 4.0 15.0 0.00 0.00 0.00 50 1016.0
20260506233601 65 273 3.0 14.0 0.00 0.00 0.00 49 1015.9
20260506233102 66 233 3.0 13.0 0.00 0.00 0.00 47 1016.1
20260506232559 66 212 3.0 13.0 0.00 0.00 0.00 47 1015.9
20260506232059 66 228 4.0 13.0 0.00 0.00 0.00 47 1016.0
20260506231600 66 228 3.0 11.0 0.00 0.00 0.00 47 1015.9
20260506231101 65 241 3.0 11.0 0.00 0.00 0.00 47 1015.8
20260506230558 66 219 3.0 8.0 0.00 0.00 0.00 45 1015.9
20260506230059 66 243 3.0 12.0 0.00 0.00 0.00 45 1015.9
20260506225600 66 51 3.0 14.0 0.00 0.00 0.00 43 1015.8
20260506225100 67 163 4.0 23.0 0.00 0.00 0.00 44 1016.0
20260506224558 67 219 4.0 23.0 0.00 0.00 0.00 42 1015.9
20260506224058 68 259 4.0 10.0 0.00 0.00 0.00 41 1015.9
20260506223558 68 265 2.0 9.0 0.00 0.00 0.00 41 1015.9
20260506223059 68 280 3.0 7.0 0.00 0.00 0.00 41 1016.1
20260506222601 69 225 3.0 12.0 0.00 0.00 0.00 39 1016.1
20260506222059 70 353 3.0 12.0 0.00 0.00 0.00 40 1016.3
20260506221557 71 226 1.0 8.0 0.00 0.00 0.00 39 1016.1
20260506221058 71 261 2.0 8.0 0.00 0.00 0.00 39 1016.3
20260506220559 71 237 4.0 9.0 0.00 0.00 0.00 39 1016.3
20260506220059 72 220 2.0 10.0 0.00 0.00 0.00 39 1016.2
20260506215559 71 227 2.0 14.0 0.00 0.00 0.00 39 1016.3
20260506215059 71 250 2.0 14.0 0.00 0.00 0.00 40 1016.3
20260506214558 70 270 3.0 13.0 0.00 0.00 0.00 37 1016.4
20260506214059 72 306 2.0 13.0 0.00 0.00 0.00 38 1016.3
20260506213602 71 226 3.0 11.0 0.00 0.00 0.00 38 1016.4
20260506213131 71 297 2.0 7.0 0.00 0.00 0.00 38 1016.3
20260506212558 71 231 3.0 7.0 0.00 0.00 0.00 38 1016.5
20260506212059 71 276 2.0 8.0 0.00 0.00 0.00 39 1016.5
20260506211620 72 230 2.0 9.0 0.00 0.00 0.00 40 1016.5
20260506211058 71 247 1.0 9.0 0.00 0.00 0.00 41 1016.6
20260506210558 70 191 2.0 9.0 0.00 0.00 0.00 39 1016.6
20260506210103 70 232 1.0 11.0 0.00 0.00 0.00 38 1016.6
20260506205559 69 212 2.0 11.0 0.00 0.00 0.00 40 1016.7
20260506205059 68 231 3.0 10.0 0.00 0.00 0.00 42 1016.7
20260506204600 69 221 2.0 10.0 0.00 0.00 0.00 43 1016.7
20260506204058 68 249 3.0 10.0 0.00 0.00 0.00 41 1016.7
20260506203558 68 215 2.0 12.0 0.00 0.00 0.00 43 1016.7
20260506203058 67 268 2.0 12.0 0.00 0.00 0.00 45 1016.6
20260506202601 67 228 2.0 12.0 0.00 0.00 0.00 46 1016.7
20260506202101 67 0 4.0 12.0 0.00 0.00 0.00 45 1016.7
20260506201609 67 146 3.0 15.0 0.00 0.00 0.00 47 1016.6
20260506201101 66 230 4.0 15.0 0.00 0.00 0.00 48 1016.7
20260506200558 68 243 3.0 9.0 0.00 0.00 0.00 47 1016.4
20260506195559 68 242 4.0 12.0 0.00 0.00 0.00 49 1016.2
20260506195101 69 216 3.0 10.0 0.00 0.00 0.00 48 1016.1
20260506194628 69 218 4.0 10.0 0.00 0.00 0.00 48 1016.1
20260506194058 69 112 3.0 11.0 0.00 0.00 0.00 47 1016.1
20260506193559 69 267 4.0 11.0 0.00 0.00 0.00 47 1016.1
20260506193058 69 293 3.0 10.0 0.00 0.00 0.00 47 1016.1
20260506192559 69 185 4.0 10.0 0.00 0.00 0.00 46 1016.0
20260506192058 70 228 3.0 7.0 0.00 0.00 0.00 46 1016.0
20260506191600 69 93 2.0 8.0 0.00 0.00 0.00 45 1016.0
20260506191059 70 237 3.0 8.0 0.00 0.00 0.00 45 1016.1
20260506190558 69 222 2.0 9.0 0.00 0.00 0.00 45 1016.1
20260506190057 69 46 3.0 9.0 0.00 0.00 0.00 46 1016.1
20260506185558 69 202 3.0 14.0 0.00 0.00 0.00 46 1016.1
20260506185101 69 207 4.0 14.0 0.00 0.00 0.00 46 1016.2
20260506184607 69 236 2.0 11.0 0.00 0.00 0.00 47 1016.3
20260506184058 70 249 2.0 14.0 0.00 0.00 0.00 45 1016.3
20260506183558 70 253 3.0 14.0 0.00 0.00 0.00 44 1016.3
20260506183103 71 167 4.0 14.0 0.00 0.00 0.00 43 1016.3
20260506182558 71 280 3.0 10.0 0.00 0.00 0.00 42 1016.3
20260506182059 71 230 3.0 10.0 0.00 0.00 0.00 41 1016.3
20260506181605 71 280 2.0 8.0 0.00 0.00 0.00 41 1016.4
20260506181059 71 209 2.0 8.0 0.00 0.00 0.00 41 1016.3
20260506180559 71 254 2.0 10.0 0.00 0.00 0.00 40 1016.3
20260506175558 69 243 3.0 12.0 0.00 0.00 0.00 44 1016.3
20260506175058 69 248 3.0 12.0 0.00 0.00 0.00 44 1016.3
20260506174558 68 228 3.0 14.0 0.00 0.00 0.00 45 1016.4
20260506174058 68 251 3.0 14.0 0.00 0.00 0.00 47 1016.5
20260506173557 67 228 2.0 11.0 0.00 0.00 0.00 48 1016.4
20260506173109 67 99 3.0 11.0 0.00 0.00 0.00 49 1016.4
20260506172601 67 228 3.0 9.0 0.00 0.00 0.00 52 1016.4
20260506172058 66 236 3.0 9.0 0.00 0.00 0.00 53 1016.4
20260506171559 65 253 2.0 5.0 0.00 0.00 0.00 55 1016.4
20260506171116 65 235 2.0 5.0 0.00 0.00 0.00 55 1016.3
20260506170558 65 237 2.0 5.0 0.00 0.00 0.00 57 1016.3
20260506170114 64 255 1.0 5.0 0.00 0.00 0.00 57 1016.4
20260506165558 63 239 2.0 5.0 0.00 0.00 0.00 57 1016.3
20260506165058 63 233 1.0 4.0 0.00 0.00 0.00 59 1016.3
20260506164556 62 233 1.0 4.0 0.00 0.00 0.00 61 1016.4
20260506164058 62 245 1.0 5.0 0.00 0.00 0.00 61 1016.3
20260506163603 61 246 2.0 7.0 0.00 0.00 0.00 61 1016.5
20260506163110 61 251 2.0 7.0 0.00 0.00 0.00 62 1016.4
20260506162600 60 277 2.0 8.0 0.00 0.00 0.00 63 1016.4
20260506162059 60 264 2.0 9.0 0.00 0.00 0.00 65 1016.6
20260506161557 59 209 2.0 9.0 0.00 0.00 0.00 65 1016.7
20260506161058 59 212 2.0 10.0 0.00 0.00 0.00 66 1016.6
20260506160558 58 280 2.0 10.0 0.00 0.00 0.00 67 1016.7
20260506160056 58 211 2.0 12.0 0.00 0.00 0.00 67 1016.5
20260506155559 58 215 2.0 12.0 0.00 0.00 0.00 67 1016.4
20260506155059 58 251 3.0 12.0 0.00 0.00 0.00 68 1016.1
20260506154555 57 219 2.0 10.0 0.00 0.00 0.00 69 1016.2
20260506154059 57 150 2.0 12.0 0.00 0.00 0.00 70 1016.2
20260506153558 56 234 2.0 12.0 0.00 0.00 0.00 71 1016.4
20260506153057 56 252 4.0 12.0 0.00 0.00 0.00 70 1016.4
20260506152558 56 6 2.0 13.0 0.00 0.00 0.00 71 1016.4
20260506152058 55 216 3.0 13.0 0.00 0.00 0.00 73 1016.3
20260506151558 55 155 3.0 13.0 0.00 0.00 0.00 74 1016.3
20260506151102 55 238 3.0 13.0 0.00 0.00 0.00 73 1016.5
20260506150558 54 170 2.0 13.0 0.00 0.00 0.00 74 1016.5
20260506150057 54 235 4.0 13.0 0.00 0.00 0.00 74 1016.4